Time,TemperatureF,DewpointF,PressureIn,WindDirection,WindDirectionDegrees,WindSpeedMPH,WindSpeedGustMPH,Humidity,HourlyPrecipIn,Conditions,Clouds,dailyrainin,SolarRadiationWatts/m^2,SoftwareType,DateUTC
2013-04-20 00:02:00,63.0,62.0,-100.00,SSE,163,4.0,8.0,98,0.00,,,0.00,0.000000,,2013-04-20 10:02:00,
2013-04-20 00:12:00,63.0,62.0,-100.00,SSE,163,4.0,8.0,98,0.00,,,0.00,0.000000,,2013-04-20 10:12:00,
2013-04-20 00:23:00,63.0,62.0,-100.00,SSE,163,4.0,8.0,98,0.00,,,0.00,0.000000,,2013-04-20 10:23:00,
2013-04-20 00:32:00,63.0,62.0,-100.00,SSE,163,4.0,8.0,98,0.00,,,0.00,0.000000,,2013-04-20 10:32:00,
2013-04-20 01:02:00,62.0,61.0,-100.00,SSE,153,4.0,7.0,96,0.00,,,0.00,0.000000,,2013-04-20 11:02:00,
2013-04-20 01:12:00,62.0,61.0,-100.00,SSE,153,4.0,7.0,96,0.00,,,0.00,0.000000,,2013-04-20 11:12:00,
2013-04-20 01:22:00,62.0,61.0,-100.00,SSE,153,4.0,7.0,96,0.00,,,0.00,0.000000,,2013-04-20 11:22:00,
2013-04-20 01:31:00,62.0,61.0,-100.00,SSE,153,4.0,7.0,96,0.00,,,0.00,0.000000,,2013-04-20 11:31:00,
2013-04-20 02:02:00,59.0,59.0,-100.00,SSE,158,0.0,6.0,99,0.00,,,0.00,0.000000,,2013-04-20 12:02:00,
2013-04-20 02:11:00,59.0,59.0,-100.00,SSE,158,0.0,6.0,99,0.00,,,0.00,0.000000,,2013-04-20 12:11:00,
2013-04-20 02:22:00,59.0,59.0,-100.00,SSE,158,0.0,6.0,99,0.00,,,0.00,0.000000,,2013-04-20 12:22:00,
2013-04-20 02:32:00,59.0,59.0,-100.00,SSE,158,0.0,6.0,99,0.00,,,0.00,0.000000,,2013-04-20 12:32:00,
2013-04-20 03:02:00,57.0,57.0,-100.00,SE,146,4.0,6.0,99,0.00,,,0.00,0.000000,,2013-04-20 13:02:00,
2013-04-20 03:11:00,57.0,57.0,-100.00,SE,146,4.0,6.0,99,0.00,,,0.00,0.000000,,2013-04-20 13:11:00,
2013-04-20 03:21:00,57.0,57.0,-100.00,SE,146,4.0,6.0,99,0.00,,,0.00,0.000000,,2013-04-20 13:21:00,
2013-04-20 03:31:00,57.0,57.0,-100.00,SE,146,4.0,6.0,99,0.00,,,0.00,0.000000,,2013-04-20 13:31:00,
2013-04-20 04:02:00,57.0,57.0,-100.00,SE,141,5.0,7.0,99,0.00,,,0.00,0.000000,,2013-04-20 14:02:00,
2013-04-20 04:11:00,57.0,57.0,-100.00,SE,141,5.0,7.0,99,0.00,,,0.00,0.000000,,2013-04-20 14:11:00,
2013-04-20 04:21:00,57.0,57.0,-100.00,SE,141,5.0,7.0,99,0.00,,,0.00,0.000000,,2013-04-20 14:21:00,
2013-04-20 04:31:00,57.0,57.0,-100.00,SE,141,5.0,7.0,99,0.00,,,0.00,0.000000,,2013-04-20 14:31:00,
2013-04-20 05:01:00,57.0,54.0,-100.00,SE,140,6.0,8.0,89,0.00,,,0.00,0.000000,,2013-04-20 15:01:00,
2013-04-20 05:11:00,57.0,54.0,-100.00,SE,140,6.0,8.0,89,0.00,,,0.00,0.000000,,2013-04-20 15:11:00,
2013-04-20 05:21:00,57.0,54.0,-100.00,SE,140,6.0,8.0,89,0.00,,,0.00,0.000000,,2013-04-20 15:21:00,
2013-04-20 05:33:00,57.0,54.0,-100.00,SE,140,6.0,8.0,89,0.00,,,0.00,0.000000,,2013-04-20 15:33:00,
2013-04-20 06:03:00,56.0,52.0,-100.00,SE,140,7.0,9.0,88,0.00,,,0.00,0.000000,,2013-04-20 16:03:00,
2013-04-20 06:12:00,56.0,52.0,-100.00,SE,140,7.0,9.0,88,0.00,,,0.00,0.000000,,2013-04-20 16:12:00,
2013-04-20 06:23:00,56.0,52.0,-100.00,SE,140,7.0,9.0,88,0.00,,,0.00,0.000000,,2013-04-20 16:23:00,
2013-04-20 06:32:00,56.0,52.0,-100.00,SE,140,7.0,9.0,88,0.00,,,0.00,0.000000,,2013-04-20 16:32:00,
2013-04-20 07:02:00,57.0,53.0,-100.00,SE,135,6.0,9.0,86,0.00,,,0.00,18.000000,,2013-04-20 17:02:00,
2013-04-20 07:12:00,57.0,53.0,-100.00,SE,135,6.0,9.0,86,0.00,,,0.00,18.000000,,2013-04-20 17:12:00,
2013-04-20 07:22:00,57.0,53.0,-100.00,SE,135,6.0,9.0,86,0.00,,,0.00,18.000000,,2013-04-20 17:22:00,
2013-04-20 07:32:00,57.0,53.0,-100.00,SE,135,6.0,9.0,86,0.00,,,0.00,18.000000,,2013-04-20 17:32:00,
2013-04-20 08:02:00,69.0,56.0,-100.00,SSE,158,1.0,10.0,64,0.00,,,0.00,244.000000,,2013-04-20 18:02:00,
2013-04-20 08:12:00,69.0,56.0,-100.00,SSE,158,1.0,10.0,64,0.00,,,0.00,244.000000,,2013-04-20 18:12:00,
2013-04-20 08:22:00,69.0,56.0,-100.00,SSE,158,1.0,10.0,64,0.00,,,0.00,244.000000,,2013-04-20 18:22:00,
2013-04-20 08:32:00,69.0,56.0,-100.00,SSE,158,1.0,10.0,64,0.00,,,0.00,244.000000,,2013-04-20 18:32:00,
2013-04-20 09:01:00,73.0,59.0,-100.00,NNE,32,2.0,8.0,61,0.00,,,-99.99,545.000000,,2013-04-20 19:01:00,
2013-04-20 09:11:00,73.0,59.0,-100.00,NNE,32,2.0,8.0,61,0.00,,,-99.99,545.000000,,2013-04-20 19:11:00,
2013-04-20 09:21:00,73.0,59.0,-100.00,NNE,32,2.0,8.0,61,0.00,,,-99.99,545.000000,,2013-04-20 19:21:00,
2013-04-20 09:31:00,73.0,59.0,-100.00,NNE,32,2.0,8.0,61,0.00,,,-99.99,545.000000,,2013-04-20 19:31:00,
2013-04-20 10:02:00,76.0,58.0,-100.00,North,8,4.0,9.0,54,0.00,,,0.00,809.000000,,2013-04-20 20:02:00,
2013-04-20 10:12:00,76.0,58.0,-100.00,North,8,4.0,9.0,54,0.00,,,0.00,809.000000,,2013-04-20 20:12:00,
2013-04-20 10:21:00,76.0,58.0,-100.00,North,8,4.0,9.0,54,0.00,,,0.00,809.000000,,2013-04-20 20:21:00,
2013-04-20 10:32:00,76.0,58.0,-100.00,North,8,4.0,9.0,54,0.00,,,0.00,809.000000,,2013-04-20 20:32:00,
2013-04-20 11:01:00,76.0,57.0,-100.00,NNW,338,6.0,15.0,52,0.00,,,0.00,1038.000000,,2013-04-20 21:01:00,
2013-04-20 11:12:00,76.0,57.0,-100.00,NNW,338,6.0,15.0,52,0.00,,,0.00,1038.000000,,2013-04-20 21:12:00,
2013-04-20 11:21:00,76.0,57.0,-100.00,NNW,338,6.0,15.0,52,0.00,,,0.00,1038.000000,,2013-04-20 21:21:00,
2013-04-20 11:32:00,76.0,57.0,-100.00,NNW,338,6.0,15.0,52,0.00,,,0.00,1038.000000,,2013-04-20 21:32:00,
2013-04-20 12:02:00,73.0,58.0,-100.00,WNW,296,7.0,15.0,59,0.00,,,0.00,833.000000,,2013-04-20 22:02:00,
2013-04-20 12:12:00,73.0,58.0,-100.00,WNW,296,7.0,15.0,59,0.00,,,0.00,833.000000,,2013-04-20 22:12:00,
2013-04-20 12:22:00,73.0,58.0,-100.00,WNW,296,7.0,15.0,59,0.00,,,0.00,833.000000,,2013-04-20 22:22:00,
2013-04-20 12:32:00,73.0,58.0,-100.00,WNW,296,7.0,15.0,59,0.00,,,0.00,833.000000,,2013-04-20 22:32:00,
2013-04-20 13:02:00,74.0,61.0,-100.00,WNW,302,8.0,14.0,64,0.00,,,0.00,880.000000,,2013-04-20 23:02:00,
2013-04-20 13:11:00,74.0,61.0,-100.00,WNW,302,8.0,14.0,64,0.00,,,0.00,880.000000,,2013-04-20 23:11:00,
2013-04-20 13:22:00,74.0,61.0,-100.00,WNW,302,8.0,14.0,64,0.00,,,0.00,880.000000,,2013-04-20 23:22:00,
2013-04-20 13:32:00,74.0,61.0,-100.00,WNW,302,8.0,14.0,64,0.00,,,0.00,880.000000,,2013-04-20 23:32:00,
2013-04-20 14:01:00,76.0,63.0,-100.00,WNW,282,8.0,15.0,65,0.00,,,0.00,780.000000,,2013-04-21 00:01:00,
2013-04-20 14:11:00,76.0,63.0,-100.00,WNW,282,8.0,15.0,65,0.00,,,0.00,780.000000,,2013-04-21 00:11:00,
2013-04-20 14:21:00,76.0,63.0,-100.00,WNW,282,8.0,15.0,65,0.00,,,0.00,780.000000,,2013-04-21 00:21:00,
2013-04-20 14:31:00,76.0,63.0,-100.00,WNW,282,8.0,15.0,65,0.00,,,0.00,780.000000,,2013-04-21 00:31:00,
2013-04-20 15:01:00,73.0,61.0,-100.00,WNW,290,9.0,17.0,67,0.00,,,0.00,725.000000,,2013-04-21 01:01:00,
2013-04-20 15:11:00,73.0,61.0,-100.00,WNW,290,9.0,17.0,67,0.00,,,0.00,725.000000,,2013-04-21 01:11:00,
2013-04-20 15:21:00,73.0,61.0,-100.00,WNW,290,9.0,17.0,67,0.00,,,0.00,725.000000,,2013-04-21 01:21:00,
2013-04-20 15:31:00,73.0,61.0,-100.00,WNW,290,9.0,17.0,67,0.00,,,0.00,725.000000,,2013-04-21 01:31:00,
2013-04-20 16:01:00,71.0,64.0,-100.00,NW,304,8.0,17.0,79,0.00,,,0.00,504.000000,,2013-04-21 02:01:00,
2013-04-20 16:11:00,71.0,64.0,-100.00,NW,304,8.0,17.0,79,0.00,,,0.00,504.000000,,2013-04-21 02:11:00,
2013-04-20 16:21:00,71.0,64.0,-100.00,NW,304,8.0,17.0,79,0.00,,,0.00,504.000000,,2013-04-21 02:21:00,
2013-04-20 16:31:00,71.0,64.0,-100.00,NW,304,8.0,17.0,79,0.00,,,0.00,504.000000,,2013-04-21 02:31:00,
2013-04-20 17:01:00,69.0,64.0,-100.00,NW,310,7.0,14.0,85,0.00,,,0.00,349.000000,,2013-04-21 03:01:00,
2013-04-20 17:11:00,69.0,64.0,-100.00,NW,310,7.0,14.0,85,0.00,,,0.00,349.000000,,2013-04-21 03:11:00,
2013-04-20 17:21:00,69.0,64.0,-100.00,NW,310,7.0,14.0,85,0.00,,,0.00,349.000000,,2013-04-21 03:21:00,
2013-04-20 17:32:00,69.0,64.0,-100.00,NW,310,7.0,14.0,85,0.00,,,0.00,349.000000,,2013-04-21 03:32:00,
2013-04-20 18:02:00,69.0,65.0,-100.00,NW,308,5.0,12.0,86,0.00,,,0.00,228.000000,,2013-04-21 04:02:00,
2013-04-20 18:12:00,69.0,65.0,-100.00,NW,308,5.0,12.0,86,0.00,,,0.00,228.000000,,2013-04-21 04:12:00,
2013-04-20 18:22:00,69.0,65.0,-100.00,NW,308,5.0,12.0,86,0.00,,,0.00,228.000000,,2013-04-21 04:22:00,
2013-04-20 18:32:00,69.0,65.0,-100.00,NW,308,5.0,12.0,86,0.00,,,0.00,228.000000,,2013-04-21 04:32:00,
2013-04-20 19:02:00,67.0,66.0,-100.00,NW,326,5.0,8.0,96,0.00,,,0.00,43.000000,,2013-04-21 05:02:00,
2013-04-20 19:12:00,67.0,66.0,-100.00,NW,326,5.0,8.0,96,0.00,,,0.00,43.000000,,2013-04-21 05:12:00,
2013-04-20 19:22:00,67.0,66.0,-100.00,NW,326,5.0,8.0,96,0.00,,,0.00,43.000000,,2013-04-21 05:22:00,
2013-04-20 19:32:00,67.0,66.0,-100.00,NW,326,5.0,8.0,96,0.00,,,0.00,43.000000,,2013-04-21 05:32:00,
2013-04-20 20:01:00,66.0,66.0,-100.00,NW,306,4.0,8.0,99,0.00,,,0.00,0.000000,,2013-04-21 06:01:00,
2013-04-20 20:12:00,66.0,66.0,-100.00,NW,306,4.0,8.0,99,0.00,,,0.00,0.000000,,2013-04-21 06:12:00,
2013-04-20 20:21:00,66.0,66.0,-100.00,NW,306,4.0,8.0,99,0.00,,,0.00,0.000000,,2013-04-21 06:21:00,
2013-04-20 20:32:00,66.0,66.0,-100.00,NW,306,4.0,8.0,99,0.00,,,0.00,0.000000,,2013-04-21 06:32:00,
2013-04-20 21:01:00,64.0,64.0,-100.00,WNW,290,0.0,7.0,99,0.00,,,0.00,0.000000,,2013-04-21 07:01:00,
2013-04-20 21:11:00,64.0,64.0,-100.00,WNW,290,0.0,7.0,99,0.00,,,0.00,0.000000,,2013-04-21 07:11:00,
2013-04-20 21:21:00,64.0,64.0,-100.00,WNW,290,0.0,7.0,99,0.00,,,0.00,0.000000,,2013-04-21 07:21:00,
2013-04-20 21:31:00,64.0,64.0,-100.00,WNW,290,0.0,7.0,99,0.00,,,0.00,0.000000,,2013-04-21 07:31:00,
2013-04-20 22:01:00,63.0,63.0,-100.00,WNW,284,0.0,4.0,99,0.00,,,0.00,0.000000,,2013-04-21 08:01:00,
2013-04-20 22:12:00,63.0,63.0,-100.00,WNW,284,0.0,4.0,99,0.00,,,0.00,0.000000,,2013-04-21 08:12:00,
2013-04-20 22:21:00,63.0,63.0,-100.00,WNW,284,0.0,4.0,99,0.00,,,0.00,0.000000,,2013-04-21 08:21:00,
2013-04-20 22:32:00,63.0,63.0,-100.00,WNW,284,0.0,4.0,99,0.00,,,0.00,0.000000,,2013-04-21 08:32:00,
2013-04-20 23:01:00,62.0,62.0,-100.00,WNW,295,0.0,5.0,99,0.00,,,0.00,0.000000,,2013-04-21 09:01:00,
2013-04-20 23:11:00,62.0,62.0,-100.00,WNW,295,0.0,5.0,99,0.00,,,0.00,0.000000,,2013-04-21 09:11:00,
2013-04-20 23:21:00,62.0,62.0,-100.00,WNW,295,0.0,5.0,99,0.00,,,0.00,0.000000,,2013-04-21 09:21:00,
2013-04-20 23:32:00,62.0,62.0,-100.00,WNW,295,0.0,5.0,99,0.00,,,0.00,0.000000,,2013-04-21 09:32:00,